,

(GMT )
Qaqortoq

Weather History for BGJH - February, 2014

Change the Weather History Date:

Sunday, February 9, 2014

  Actual Average Record
Temperature  
Mean Temperature 14 °F -  
Max Temperature 16 °F - - ()
Min Temperature 12 °F - - ()
Degree Days  
Heating Degree Days 51    
Moisture  
Dew Point 9 °F    
Average Humidity 72    
Maximum Humidity 93    
Minimum Humidity 51    
Precipitation  
Precipitation 0.00 in - - ()
Sea Level Pressure  
Sea Level Pressure 29.09 in    
Wind  
Wind Speed 4 mph ()    
Max Wind Speed 7 mph    
Max Gust Speed -    
Visibility 4.2 miles    
Events Snow    
T = Trace of Precipitation, MM = Missing Value Source: Averaged Metar Reports

Daily Weather History Graph

Daily Weather History Graph

Search for Another Location

Airport or City:

Trip Planner

Search our weather history database for the weather conditions in past years. The results will help you decide how hot, cold, wet, or windy it might be!

Date:

Astronomy

Feb. 09, 2014 Rise Set
Actual Time 8:01 AM -03 4:36 PM -03
Civil Twilight 7:15 AM -03 5:22 PM -03
Nautical Twilight 6:24 AM -03 6:13 PM -03
Astronomical Twilight 5:35 AM -03 7:02 PM -03
Moon 11:38 AM -03 (2/9) 4:31 AM -03 (2/9)
Length of Visible Light 10h 07m
Length of Day
8h 35m
Waxing Gibbous, 76% of the Moon is Illuminated
Feb 9
Waxing Gibbous
Feb 14
Full
Feb 22
Last Quarter
Mar 1
New
Mar 8
First Quarter

Hourly Weather History & Observations

Time (-03) Temp. Dew Point Humidity Pressure Visibility Wind Dir Wind Speed Gust Speed Precip Events Conditions
12:00 AM 16 °F 8 °F 60% 29.25 in 31 mi NE 3.5 mph - -  
1:00 AM 15 °F 7 °F 59% 29.24 in 31 mi NNE 4.6 mph - -  
2:00 AM 15 °F 8 °F 62% 29.23 in 31 mi NNE 4.6 mph - -  
3:00 AM 15 °F 7 °F 60% 29.21 in 31 mi ENE 5.8 mph - -  
4:00 AM 12 °F 5 °F 62% 29.19 in 31 mi NNW 5.8 mph - -  
5:00 AM 12 °F 2 °F 51% 29.18 in 31 mi North 4.6 mph - -  
6:00 AM 13 °F 5 °F 57% 29.17 in 31 mi NNW 4.6 mph - -   Mostly Cloudy
7:00 AM 15 °F 6 °F 55% 29.16 in 31 mi NNE 2.3 mph - -   Scattered Clouds
8:00 AM 15 °F 6 °F 53% 29.14 in 31 mi NNW 3.5 mph - -   Scattered Clouds
9:00 AM 14 °F 4 °F 51% 29.13 in 31 mi NNW 4.6 mph - -   Mostly Cloudy
10:00 AM 17 °F 7 °F 51% 29.11 in 31 mi ENE 4.6 mph - -   Scattered Clouds
11:00 AM 15 °F 9 °F 67% 29.09 in 3 mi North 4.6 mph - - Snow Light Snow
12:00 PM 15 °F 10 °F 72% 29.08 in 5 mi NNW 4.6 mph - - Snow Light Snow
1:00 PM 15 °F 12 °F 81% 29.07 in 2 mi North 4.6 mph - - Snow Light Snow
2:00 PM 15 °F 13 °F 87% 29.05 in 2 mi NW 3.5 mph - - Snow Light Snow
3:00 PM 16 °F 14 °F 86% 29.03 in 2 mi West 2.3 mph - - Snow Light Snow
4:00 PM 15 °F 13 °F 85% 29.02 in 2 mi NW 5.8 mph - - Snow Light Snow
5:00 PM 15 °F 13 °F 91% 29.01 in 1 mi NW 4.6 mph - - Snow Light Snow
6:00 PM 15 °F 14 °F 92% 29.00 in 7 mi WNW 2.3 mph - - Snow Light Snow
7:00 PM 15 °F 14 °F 93% 28.99 in 14 mi NW 3.5 mph - - Snow Light Snow
8:00 PM 15 °F 13 °F 88% 28.97 in 31 mi NNW 3.5 mph - - Snow Snow
9:00 PM 15 °F 13 °F 85% 28.96 in 25 mi NW 5.8 mph - - Snow Snow Grains
10:00 PM 14 °F 11 °F 85% 28.94 in 31 mi NW 6.9 mph - -   Clear
11:00 PM 14 °F 12 °F 86% 28.92 in 31 mi NW 5.8 mph - -   Scattered Clouds